Copper Mountain, CO

11:37 PM MDT on August 17, 2017 (GMT -0600)
Copper Mountain

Weather History for KCCU - May, 2013

Change the Weather History Date:

Sunday, May 19, 2013

  Actual Average Record
Temperature  
Mean Temperature 30 °F -  
Max Temperature 33 °F - 55 °F (2005)
Min Temperature 28 °F - 19 °F (2017)
Degree Days  
Heating Degree Days 34    
Month to date heating degree days  
Cooling Degree Days 0    
Month to date cooling degree days  
Moisture  
Dew Point 26 °F    
Average Humidity 83    
Maximum Humidity 87    
Minimum Humidity 70    
Precipitation  
Precipitation 0.16 in - 0.16 in (2013)
Sea Level Pressure  
Sea Level Pressure 30.12 in    
Wind  
Wind Speed 17 mph (West)    
Max Wind Speed 31 mph    
Max Gust Speed 38 mph    
Visibility 4 miles    
Events Fog , Snow , Thunderstorm    
T = Trace of Precipitation, MM = Missing Value Source: NWS Daily Summary

Daily Weather History Graph

Daily Weather History Graph

Search for Another Location

Airport or City:

Trip Planner

Search our weather history database for the weather conditions in past years. The results will help you decide how hot, cold, wet, or windy it might be!

Date:

Astronomy

May. 19, 2013 Rise Set
Actual Time 5:47 AM MDT 8:15 PM MDT
Civil Twilight 5:16 AM MDT 8:46 PM MDT
Nautical Twilight 4:38 AM MDT 9:24 PM MDT
Astronomical Twilight 3:55 AM MDT 10:07 PM MDT
Moon 2:24 PM MDT (5/19) 2:10 AM MDT (5/19)
Length of Visible Light 15h 30m
Length of Day
14h 28m
Waxing Gibbous, 66% of the Moon is Illuminated
May 19
Waxing Gibbous
May 24
Full
May 31
Last Quarter
Jun 8
New
Jun 16
First Quarter

Hourly Weather History & Observations

Time (MDT) Temp. Windchill Dew Point Humidity Pressure Visibility Wind Dir Wind Speed Gust Speed Precip Events Conditions
12:12 AM 32.0 °F 21.6 °F 28.4 °F 87% 30.15 in 0.2 mi West 15.0 mph - N/A Snow Light Snow
12:32 AM 32.0 °F 20.8 °F 28.4 °F 87% 30.15 in 0.2 mi West 17.3 mph 24.2 mph N/A Thunderstorm Haze
12:52 AM 32.0 °F 21.6 °F 28.4 °F 87% 30.15 in 0.2 mi West 15.0 mph 18.4 mph N/A Snow , Thunderstorm Snow
1:12 AM 32.0 °F 21.2 °F 28.4 °F 87% 30.15 in 0.2 mi West 16.1 mph 23.0 mph N/A Snow Snow
1:32 AM 32.0 °F 20.5 °F 28.4 °F 87% 30.15 in 0.2 mi West 18.4 mph 24.2 mph N/A   Haze
1:52 AM 30.2 °F 17.8 °F 26.6 °F 86% 30.14 in 0.2 mi West 19.6 mph 24.2 mph N/A Snow Light Snow
2:12 AM 30.2 °F 18.5 °F 26.6 °F 86% 30.14 in 0.5 mi West 17.3 mph 24.2 mph N/A Fog Light Freezing Fog
2:32 AM 30.2 °F 18.5 °F 26.6 °F 86% 30.13 in 0.2 mi West 17.3 mph 23.0 mph N/A Fog , Thunderstorm Light Freezing Fog
2:52 AM 30.2 °F 17.8 °F 26.6 °F 86% 30.12 in 4.0 mi West 19.6 mph 23.0 mph N/A   Overcast
3:12 AM 30.2 °F 18.1 °F 26.6 °F 86% 30.12 in 2.0 mi West 18.4 mph - N/A   Overcast
3:32 AM 30.2 °F 18.9 °F 26.6 °F 86% 30.12 in 7.0 mi West 16.1 mph 21.9 mph N/A   Overcast
3:52 AM 30.2 °F 18.1 °F 26.6 °F 86% 30.12 in 0.2 mi West 18.4 mph - N/A Fog Light Freezing Fog
4:12 AM 30.2 °F 19.3 °F 26.6 °F 86% 30.12 in 4.0 mi West 15.0 mph - N/A   Overcast
4:32 AM 30.2 °F 19.8 °F 26.6 °F 86% 30.11 in 0.5 mi West 13.8 mph - N/A Fog Light Freezing Fog
4:52 AM 30.2 °F 20.2 °F 26.6 °F 86% 30.11 in 0.2 mi West 12.7 mph - N/A Fog Light Freezing Fog
5:12 AM 30.2 °F 19.8 °F 26.6 °F 86% 30.10 in 0.2 mi West 13.8 mph - N/A Fog Light Freezing Fog
5:32 AM 28.4 °F 16.6 °F 23.0 °F 80% 30.10 in 3.0 mi West 16.1 mph - N/A   Haze
6:12 AM 28.4 °F 15.1 °F 23.0 °F 80% 30.10 in 10.0 mi West 20.7 mph - N/A   Overcast
6:32 AM 28.4 °F 15.4 °F 23.0 °F 80% 30.10 in 7.0 mi West 19.6 mph - N/A   Overcast
6:52 AM 28.4 °F 16.6 °F 23.0 °F 80% 30.10 in 7.0 mi West 16.1 mph - N/A   Overcast
7:12 AM 28.4 °F 18.5 °F 23.0 °F 80% 30.10 in 0.8 mi West 11.5 mph - N/A Snow Light Snow
7:32 AM 28.4 °F 15.4 °F 23.0 °F 80% 30.10 in 0.5 mi West 19.6 mph - N/A Snow Light Snow
7:52 AM 28.4 °F 16.6 °F 23.0 °F 80% 30.10 in 1.2 mi West 16.1 mph 26.5 mph N/A   Haze
8:12 AM 30.2 °F 18.9 °F 24.8 °F 80% 30.10 in 0.5 mi West 16.1 mph 24.2 mph N/A   Haze
8:52 AM 30.2 °F 16.8 °F 24.8 °F 80% 30.10 in 0.2 mi West 23.0 mph 27.6 mph N/A Thunderstorm Haze
9:12 AM 30.2 °F 20.8 °F 26.6 °F 86% 30.11 in 0.2 mi West 11.5 mph 17.3 mph N/A Fog Light Freezing Fog
9:32 AM 30.2 °F 19.3 °F 26.6 °F 86% 30.10 in 0.2 mi West 15.0 mph 21.9 mph N/A Snow Light Snow
9:52 AM 30.2 °F 18.9 °F 26.6 °F 86% 30.10 in 5.0 mi WNW 16.1 mph - N/A   Overcast
10:12 AM 30.2 °F 18.5 °F 26.6 °F 86% 30.10 in 0.2 mi West 17.3 mph - N/A Snow Light Snow
10:32 AM 32.0 °F 20.5 °F 28.4 °F 87% 30.10 in 0.2 mi West 18.4 mph 21.9 mph N/A Snow Light Snow
10:52 AM 32.0 °F 22.1 °F 28.4 °F 87% 30.10 in 7.0 mi West 13.8 mph 20.7 mph 0.01 in   Overcast
11:12 AM 32.0 °F 19.2 °F 26.6 °F 80% 30.10 in 4.0 mi West 23.0 mph 26.5 mph N/A Snow , Thunderstorm Light Thunderstorms and Snow
11:32 AM 32.0 °F 21.2 °F 28.4 °F 87% 30.10 in 0.5 mi West 16.1 mph 21.9 mph 0.02 in   Haze
11:52 AM 30.2 °F 14.9 °F 26.6 °F 86% 30.09 in 0.2 mi West 31.1 mph 36.8 mph 0.07 in Snow , Thunderstorm Light Thunderstorms and Snow
12:12 PM 28.4 °F 16.2 °F 23.0 °F 80% 30.10 in 4.0 mi West 17.3 mph - N/A Snow , Thunderstorm Light Thunderstorms and Snow
12:32 PM 32.0 °F 21.2 °F 26.6 °F 80% 30.10 in 10.0 mi West 16.1 mph 27.6 mph N/A   Overcast
1:12 PM 30.2 °F - 24.8 °F 80% 30.09 in 0.2 mi North - - 0.03 in Snow Light Snow
1:32 PM 30.2 °F 15.4 °F 24.8 °F 80% 30.10 in 0.2 mi West 28.8 mph - 0.03 in Snow Heavy Snow
2:12 PM 32.0 °F 21.6 °F 26.6 °F 80% 30.11 in 5.0 mi West 15.0 mph 23.0 mph 0.01 in   Haze
2:32 PM 32.0 °F 22.5 °F 28.4 °F 87% 30.11 in 4.0 mi West 12.7 mph 18.4 mph 0.03 in   Haze
2:52 PM 33.8 °F 22.8 °F 30.2 °F 87% 30.11 in 10.0 mi West 18.4 mph 21.9 mph 0.04 in   Overcast
3:12 PM 33.8 °F 24.3 °F 28.4 °F 81% 30.10 in 5.0 mi West 13.8 mph 31.1 mph N/A Snow Light Snow
3:32 PM 33.8 °F 23.2 °F 28.4 °F 81% 30.11 in 7.0 mi West 17.3 mph 24.2 mph N/A   Overcast
3:52 PM 30.2 °F 16.2 °F 24.8 °F 80% 30.12 in 0.2 mi West 25.3 mph 38.0 mph N/A Snow Snow
4:12 PM 32.0 °F 20.8 °F 26.6 °F 80% 30.12 in 0.2 mi West 17.3 mph 23.0 mph N/A   Haze
4:32 PM 32.0 °F 21.6 °F 28.4 °F 87% 30.12 in 4.0 mi West 15.0 mph 21.9 mph N/A Snow Light Snow
4:52 PM 32.0 °F 20.8 °F 24.8 °F 75% 30.12 in 10.0 mi West 17.3 mph 26.5 mph N/A   Overcast
5:12 PM 33.8 °F 22.2 °F 24.8 °F 70% 30.12 in 10.0 mi West 20.7 mph 24.2 mph N/A   Mostly Cloudy
5:32 PM 33.8 °F 22.5 °F 24.8 °F 70% 30.12 in 10.0 mi West 19.6 mph 25.3 mph 0.01 in   Mostly Cloudy
5:52 PM 33.8 °F 23.9 °F 26.6 °F 75% 30.12 in 10.0 mi West 15.0 mph 21.9 mph 0.01 in   Mostly Cloudy
6:12 PM 33.8 °F 23.9 °F 28.4 °F 81% 30.12 in 10.0 mi West 15.0 mph - N/A   Overcast
6:32 PM 33.8 °F 23.9 °F 28.4 °F 81% 30.12 in 10.0 mi West 15.0 mph 20.7 mph N/A Thunderstorm Thunderstorm
6:52 PM 32.0 °F 19.5 °F 28.4 °F 87% 30.12 in 7.0 mi West 21.9 mph 27.6 mph N/A   Overcast
7:12 PM 32.0 °F 20.5 °F 26.6 °F 80% 30.12 in 4.0 mi West 18.4 mph - N/A Snow Light Snow
7:32 PM 30.2 °F 17.1 °F 23.0 °F 75% 30.14 in 10.0 mi West 21.9 mph - N/A   Overcast
7:52 PM 30.2 °F 17.8 °F 24.8 °F 80% 30.15 in 10.0 mi West 19.6 mph 25.3 mph N/A   Overcast
8:12 PM 30.2 °F 18.9 °F 24.8 °F 80% 30.15 in 10.0 mi West 16.1 mph - N/A   Overcast
8:32 PM 30.2 °F 19.3 °F 26.6 °F 86% 30.15 in 7.0 mi West 15.0 mph - N/A   Overcast
8:52 PM 30.2 °F 21.3 °F 26.6 °F 86% 30.15 in 2.0 mi West 10.4 mph 17.3 mph N/A Snow Light Snow
9:12 PM 28.4 °F 16.6 °F 24.8 °F 86% 30.15 in 10.0 mi West 16.1 mph - N/A   Overcast
9:32 PM 30.2 °F 18.1 °F 26.6 °F 86% 30.15 in 10.0 mi West 18.4 mph - N/A   Overcast
9:52 PM 30.2 °F 19.8 °F 24.8 °F 80% 30.15 in 4.0 mi West 13.8 mph - N/A Snow Light Snow
10:12 PM 30.2 °F 18.9 °F 26.6 °F 86% 30.15 in 0.8 mi West 16.1 mph - N/A Snow Snow
10:32 PM 30.2 °F 19.3 °F 26.6 °F 86% 30.15 in 0.5 mi West 15.0 mph - N/A Snow Snow
10:52 PM 30.2 °F 18.1 °F 26.6 °F 86% 30.15 in 0.2 mi West 18.4 mph - N/A Snow Heavy Snow
11:12 PM 30.2 °F 18.1 °F 26.6 °F 86% 30.14 in 0.2 mi West 18.4 mph 26.5 mph N/A Snow Heavy Snow
11:32 PM 30.2 °F 18.5 °F 26.6 °F 86% 30.14 in 0.8 mi West 17.3 mph 25.3 mph N/A Snow Light Snow
11:52 PM 30.2 °F 17.8 °F 26.6 °F 86% 30.15 in 0.2 mi West 19.6 mph - N/A Snow Snow